When you browse on this site, cookies collect data to enhance your experience and personalize the content and advertising you see.
Visit our Privacy Policy to learn more. By continuing to use the site, you agree to this use of cookies and data.
  • En España
  • Lista de países
  • Para 7 días
  • Temperatura del agua
  • Mapa Satelital
  • El tiempo en el mapa
  • Informadores
  • user-avatar
    Iniciar sesión

    Tiempo cada hora Perth

    Hoy, 21 Abril, Domingo

    Tiempo Temperatura Precipitaciones Viento Presión Humedad
    00:00 +13°C° 0 mm 2 mps 769 mmHg 65%
    01:00 +13°C° 0 mm 2 mps 769 mmHg 65%
    02:00 +12°C° 0 mm 2 mps 769 mmHg 66%
    03:00 +12°C° 0 mm 2 mps 769 mmHg 66%
    04:00 +12°C° 0 mm 2 mps 769 mmHg 67%
    05:00 +11°C° 0 mm 3 mps 769 mmHg 68%
    06:00 +11°C° 0 mm 3 mps 769 mmHg 65%
    07:00 +12°C° 0 mm 3 mps 769 mmHg 63%
    08:00 +13°C° 0 mm 3 mps 769 mmHg 61%
    09:00 +16°C° 0 mm 3 mps 769 mmHg 53%
    10:00 +18°C° 0 mm 3 mps 769 mmHg 45%
    11:00 +20°C° 0 mm 2 mps 769 mmHg 36%
    12:00 +21°C° 0 mm 2 mps 768 mmHg 33%
    13:00 +23°C° 0 mm 2 mps 768 mmHg 30%
    14:00 +24°C° 0 mm 2 mps 767 mmHg 27%
    15:00 +24°C° 0 mm 2 mps 767 mmHg 29%
    16:00 +23°C° 0 mm 2 mps 767 mmHg 32%
    17:00 +23°C° 0 mm 2 mps 766 mmHg 34%
    18:00 +20°C° 0 mm 2 mps 767 mmHg 38%
    19:00 +19°C° 0 mm 2 mps 767 mmHg 41%
    20:00 +18°C° 0 mm 2 mps 767 mmHg 45%
    21:00 +17°C° 0 mm 2 mps 767 mmHg 44%
    22:00 +17°C° 0 mm 2 mps 767 mmHg 43%
    23:00 +17°C° 0 mm 2 mps 767 mmHg 42%

    Mañana, 22 Abril, Lunes

    Tiempo Temperatura Precipitaciones Viento Presión Humedad
    00:00 +17°C° 0 mm 3 mps 767 mmHg 42%
    01:00 +17°C° 0 mm 3 mps 766 mmHg 43%
    02:00 +16°C° 0 mm 3 mps 766 mmHg 43%
    03:00 +16°C° 0 mm 3 mps 766 mmHg 44%
    04:00 +16°C° 0 mm 3 mps 766 mmHg 46%
    05:00 +16°C° 0 mm 3 mps 766 mmHg 47%
    06:00 +16°C° 0 mm 3 mps 766 mmHg 46%
    07:00 +17°C° 0 mm 3 mps 766 mmHg 46%
    08:00 +18°C° 0 mm 3 mps 766 mmHg 45%
    09:00 +20°C° 0 mm 3 mps 766 mmHg 40%
    10:00 +21°C° 0 mm 3 mps 766 mmHg 35%
    11:00 +24°C° 0 mm 3 mps 766 mmHg 31%
    12:00 +25°C° 0 mm 3 mps 766 mmHg 30%
    13:00 +26°C° 0 mm 2 mps 765 mmHg 28%
    14:00 +27°C° 0 mm 2 mps 764 mmHg 27%
    15:00 +26°C° 0 mm 2 mps 765 mmHg 31%
    16:00 +25°C° 0 mm 2 mps 765 mmHg 34%
    17:00 +24°C° 0 mm 3 mps 765 mmHg 38%
    18:00 +22°C° 0 mm 3 mps 765 mmHg 43%
    19:00 +20°C° 0 mm 3 mps 765 mmHg 48%
    20:00 +19°C° 0 mm 3 mps 766 mmHg 53%
    21:00 +18°C° 0 mm 3 mps 766 mmHg 54%
    22:00 +18°C° 0 mm 3 mps 766 mmHg 54%
    23:00 +17°C° 0 mm 3 mps 766 mmHg 55%

    Pasado mañana, 23 Abril, Martes

    Tiempo Temperatura Precipitaciones Viento Presión Humedad
    00:00 +17°C° 0 mm 3 mps 766 mmHg 56%
    01:00 +17°C° 0 mm 3 mps 766 mmHg 57%
    02:00 +17°C° 0 mm 3 mps 766 mmHg 58%
    03:00 +16°C° 0 mm 3 mps 766 mmHg 61%
    04:00 +16°C° 0 mm 3 mps 766 mmHg 63%
    05:00 +16°C° 0 mm 3 mps 766 mmHg 65%
    06:00 +16°C° 0 mm 3 mps 767 mmHg 61%
    07:00 +17°C° 0 mm 3 mps 767 mmHg 57%
    08:00 +18°C° 0 mm 3 mps 767 mmHg 53%
    09:00 +20°C° 0 mm 2 mps 767 mmHg 45%
    10:00 +24°C° 0 mm 2 mps 767 mmHg 38%
    11:00 +26°C° 0 mm 1 mps 767 mmHg 30%
    12:00 +27°C° 0 mm 1 mps 767 mmHg 29%
    13:00 +28°C° 0 mm 2 mps 766 mmHg 28%
    14:00 +29°C° 0 mm 2 mps 765 mmHg 27%
    15:00 +28°C° 0 mm 2 mps 765 mmHg 31%
    16:00 +27°C° 0 mm 3 mps 765 mmHg 35%
    17:00 +26°C° 0 mm 3 mps 766 mmHg 40%
    18:00 +24°C° 0 mm 3 mps 766 mmHg 45%
    19:00 +22°C° 0 mm 3 mps 766 mmHg 50%
    20:00 +20°C° 0 mm 3 mps 767 mmHg 55%
    21:00 +20°C° 0 mm 3 mps 767 mmHg 53%
    22:00 +19°C° 0 mm 3 mps 767 mmHg 50%
    23:00 +19°C° 0 mm 2 mps 768 mmHg 48%

    24 Abril, Miércoles

    Tiempo Temperatura Precipitaciones Viento Presión Humedad
    00:00 +19°C° 0 mm 3 mps 768 mmHg 45%
    01:00 +19°C° 0 mm 3 mps 767 mmHg 43%
    02:00 +19°C° 0 mm 4 mps 767 mmHg 41%
    03:00 +19°C° 0 mm 4 mps 767 mmHg 42%
    04:00 +19°C° 0 mm 4 mps 767 mmHg 44%
    05:00 +19°C° 0 mm 4 mps 767 mmHg 46%
    06:00 +19°C° 0 mm 4 mps 768 mmHg 47%
    07:00 +19°C° 0 mm 4 mps 768 mmHg 48%
    08:00 +19°C° 0 mm 4 mps 768 mmHg 49%
    09:00 +22°C° 0 mm 4 mps 768 mmHg 43%
    10:00 +25°C° 0 mm 4 mps 768 mmHg 37%
    11:00 +27°C° 0 mm 4 mps 768 mmHg 31%
    12:00 +28°C° 0 mm 3 mps 767 mmHg 30%
    13:00 +29°C° 0 mm 3 mps 767 mmHg 29%
    14:00 +30°C° 0 mm 3 mps 766 mmHg 28%
    15:00 +29°C° 0 mm 2 mps 766 mmHg 29%
    16:00 +28°C° 0 mm 2 mps 766 mmHg 31%
    17:00 +28°C° 0 mm 2 mps 766 mmHg 33%
    18:00 +26°C° 0 mm 2 mps 766 mmHg 36%
    19:00 +25°C° 0 mm 2 mps 767 mmHg 39%
    20:00 +23°C° 0 mm 2 mps 767 mmHg 42%
    21:00 +22°C° 0 mm 3 mps 767 mmHg 41%
    22:00 +22°C° 0 mm 3 mps 767 mmHg 41%
    23:00 +21°C° 0 mm 3 mps 767 mmHg 40%

    25 Abril, Jueves

    Tiempo Temperatura Precipitaciones Viento Presión Humedad
    00:00 +21°C° 0 mm 4 mps 767 mmHg 41%
    01:00 +21°C° 0 mm 4 mps 767 mmHg 41%
    02:00 +21°C° 0 mm 4 mps 767 mmHg 42%
    03:00 +20°C° 0 mm 4 mps 767 mmHg 44%
    04:00 +20°C° 0 mm 4 mps 767 mmHg 46%
    05:00 +20°C° 0 mm 4 mps 767 mmHg 49%
    06:00 +20°C° 0 mm 5 mps 767 mmHg 48%
    07:00 +20°C° 0 mm 5 mps 767 mmHg 47%
    08:00 +21°C° 0 mm 5 mps 768 mmHg 47%
    09:00 +23°C° 0 mm 5 mps 767 mmHg 42%
    10:00 +26°C° 0 mm 4 mps 767 mmHg 38%
    11:00 +28°C° 0 mm 4 mps 767 mmHg 34%
    12:00 +28°C° 0 mm 4 mps 766 mmHg 32%
    13:00 +29°C° 0 mm 4 mps 766 mmHg 31%
    14:00 +30°C° 0 mm 4 mps 765 mmHg 30%
    15:00 +29°C° 0 mm 3 mps 765 mmHg 31%
    16:00 +29°C° 0 mm 3 mps 765 mmHg 32%
    17:00 +28°C° 0 mm 3 mps 765 mmHg 33%
    18:00 +27°C° 0 mm 3 mps 765 mmHg 35%
    19:00 +26°C° 0 mm 3 mps 766 mmHg 37%
    20:00 +24°C° 0 mm 3 mps 766 mmHg 39%
    21:00 +24°C° 0 mm 3 mps 766 mmHg 40%
    22:00 +22°C° 0 mm 3 mps 766 mmHg 40%
    23:00 +22°C° 0 mm 4 mps 766 mmHg 41%

    26 Abril, Viernes

    Tiempo Temperatura Precipitaciones Viento Presión Humedad
    00:00 +22°C° 0 mm 4 mps 766 mmHg 42%
    01:00 +22°C° 0 mm 4 mps 766 mmHg 43%
    02:00 +22°C° 0 mm 5 mps 765 mmHg 44%
    03:00 +21°C° 0 mm 5 mps 765 mmHg 46%
    04:00 +21°C° 0 mm 5 mps 766 mmHg 47%
    05:00 +20°C° 0 mm 5 mps 766 mmHg 49%
    06:00 +21°C° 0 mm 5 mps 766 mmHg 49%
    07:00 +21°C° 0 mm 5 mps 766 mmHg 48%
    08:00 +21°C° 0 mm 5 mps 766 mmHg 48%
    09:00 +23°C° 0 mm 5 mps 766 mmHg 44%
    10:00 +26°C° 0 mm 5 mps 766 mmHg 40%
    11:00 +28°C° 0 mm 4 mps 766 mmHg 35%
    12:00 +29°C° 0 mm 4 mps 765 mmHg 34%
    13:00 +29°C° 0 mm 4 mps 764 mmHg 32%
    14:00 +30°C° 0 mm 3 mps 763 mmHg 30%
    15:00 +30°C° 0 mm 3 mps 763 mmHg 31%
    16:00 +29°C° 0 mm 2 mps 763 mmHg 32%
    17:00 +29°C° 0 mm 2 mps 764 mmHg 32%
    18:00 +27°C° 0 mm 2 mps 764 mmHg 34%
    19:00 +26°C° 0 mm 2 mps 764 mmHg 37%
    20:00 +24°C° 0 mm 3 mps 764 mmHg 39%
    21:00 +24°C° 0 mm 3 mps 764 mmHg 39%
    22:00 +24°C° 0 mm 3 mps 764 mmHg 39%
    23:00 +22°C° 0 mm 4 mps 764 mmHg 40%
    Mostrar más